ATLAS CENTAUR R/B, 10025

Orbit data source: Space-Track

ATLAS CENTAUR R/B, 10025 is space debris in HEO originally from a launch on Thu, 26 May 1977 UTC launched from the Air Force Eastern Test Range (AFETR). Debris objects in space refer to the collection of defunct objects orbiting the Earth. Examples of debris include non-operational satellites, rocket bodies, and fragments generated from explosions, collisions, or faulty payload assembly.

Loading next visibility...
ATLAS CENTAUR R/B details
Identifier
10025, 1977-041B
Orbit
HEO
Last TLE update21 hours ago
Origin
Flag of USNASA LeRC (US)
ManufacturerGD/Convair
MissionSpacecraft
Bus & MotorCENTAUR, Unknown motor
Mass~1,800 kg wet, ~1,800 kg dry
Launch date (UTC)
1977-05-26 (48 years ago)
Launch vehicleUnknown
Launch site
Air Force Eastern Test Range (AFETR)
Object type
Payload
Rocket body
Debris
Shape & HBRCyl, 9.1 m
Radar Cross Section25.930 m², Large (>1 m²)

Expand to show TLE details & history

TLE from 21 hours ago
0 ATLAS CENTAUR R/B
1 10025U 77041B   25035.29673203 -.00000098  00000-0 -59317-3 0  9991
2 10025  21.7545  67.9273 7192964 186.8594 350.1971  2.22859029386908
Epoch: 2025-02-04T07:07Z
Definitive object data (Epoch: 2025-02-04T07:07:17.647Z)
Latitude19.2935°
Longitude-54.40305°
Altitude3,183.426 km
Speed8.203 km/s
True Right ascension12h 28m 29s
True Declination19° 12' 49"
Sunlit
Object was in daylight at TLE epoch
Visualization TLE readout
Latitude19.58862°
Longitude-111.085°
Altitude13,267.441 km
Speed4.948 km/s
Apparent Right ascension09h 30m 36s
Apparent Declination9° 22' 46"
Sunlit
Object is in full shadow
Visualization observer readout
Local Sidereal Time05:58:23
Azimuth107.956° ESE
Elevation34.016°
Doppler factor1
Orbital elements
Apogee altitude36,195.42 km
Perigee altitude572.701 km
Semi-major axis24,762.197 km
Eccentricity0.7192964
Inclination21.7545°
RAAN67.9273°
Arg. of periapsis186.8594°
True anomaly290.93645°
Mean anomaly350.1971°
Eccentric anomaly328.92446°
Mean motion0.55701 °/min
BSTAR-0.00059317
Orbital period646.31 mins
Loading maneuver chart data...
Loading historical data...
Loading historical data...
Loading historical data...
Loading historical data...
Loading historical data...
Loading historical data...
Loading historical data...
Other satellites on launch #41 in the year 1977 (1977-05-26 UTC)

ATLAS CENTAUR R/B Visibility forecast

Observer location: undefined°, undefined

Span
Click to sort rows by Start time (UTC) header in descending order
Start Az.
Max El. time (UTC)
Max El. Az.
Max El.
End time (UTC)
End Az.
26 mins2025-02-05 03:56:37.979Z108.001° ESE2025-02-05 03:56:37.979Z108.001° ESE29.211°2025-02-05 04:22:37.979Z91.939° ESE
112 mins2025-02-05 23:14:37.979Z94.33° ESE2025-02-06 00:21:37.979Z93.214° ESE13.444°2025-02-06 01:06:37.979Z87.946° E
|